Location: Austin
(30.3000°N, 97.7500°W)
Time: 02:50:27
(UTC-05:00)

Fermi - Pass Details

Date: 01 October 2024
Orbit: 504 x 518 km, 25.6° (Epoch: 06 October)

Event Time Altitude Azimuth Distance (km) Brightness Sun altitude
Rises 20:09:31 0° 261° (W) 2,612 9.1 -12.5°
Reaches altitude 10° 20:11:50 10° 254° (WSW) 1,724 7.6 -13.0°
Maximum altitude 20:15:36 40° 184° (S) 752 4.5 -13.8°
Enters shadow 20:17:47 21° 125° (SE) 1,178 5.0 -14.3°
